Weather Roundup
Issued by NWS

Home | Current Version | Previous Version | Text Only | Print | Product List | Glossary On
Versions: 1 2 3 4 5 6 7 8 9 10 11 12 13 14 15 16 17 18 19 20 21 22 23 24 25 26 27 28 29 30 31 32 33 34 35 36 37 38 39 40 41 42 43 44 45 46 47 48 49 50
000
NZUS93 KARX 060410
HRRWXR

CURRENT HOURLY OBSERVATIONS ACROSS
MUCH OF THE UPPER MISSISSIPPI VALLEY
NATIONAL WEATHER SERVICE LA CROSSE WI
1100 PM CDT TUE MAY 05 2015


...SOUTHEAST MINNESOTA...


CITY           SKY/WX    TMP DP  RH WIND       PRES   REMARKS
ROCHESTER      CLOUDY    53  52  96 SE15      30.16S FOG
ROCHESTER/MAYO CLOUDY    53  53 100 E16       30.15S
WINONA         DRIZZLE   54  52  94 E9        30.18S
AUSTIN         CLOUDY    54  52  94 SE12G18   30.14S FOG
ALBERT LEA     FOG       54  54 100 SE10      30.13S VSB 3/4
DODGE CENTER   CLOUDY    54  54 100 SE14      30.15R FOG
PRESTON        CLOUDY    52  51  97 SE8       30.17S FOG
OWATONNA       CLOUDY    54  52  94 SE13      30.13S
FARIBAULT      CLOUDY    54  52  94 SE9       30.13F
$$

...ELSEWHERE IN MINNESOTA...


CITY           SKY/WX    TMP DP  RH WIND       PRES   REMARKS
MINNEAPOLIS    CLOUDY    57  53  86 SE14      30.13F
INTNL FALLS    CLEAR     52  32  46 SE5       30.09R
DULUTH         CLEAR     52  27  38 E8        30.17S
RED WING       CLOUDY    57  54  88 SE12G18   30.14F
REDWOOD FALLS  CLOUDY    57  52  83 SE16      30.07S
MANKATO        CLOUDY    55  54  94 SE13G21   30.11F
WORTHINGTON    CLOUDY    55  54  94 SE15G22   30.05F VSB 1/2
FAIRMONT       CLOUDY    55  50  82 SE14      30.08F VSB 1
$$

...SOUTHWEST WISCONSIN...


CITY           SKY/WX    TMP DP  RH WIND       PRES   REMARKS
LA CROSSE      CLOUDY    56  53  90 E3        30.18F
PRAIRIE DU CHI CLOUDY    56  54  91 E6        30.17F
BOSCOBEL       CLOUDY    56  53  90 CALM      30.20S FOG
LONE ROCK      CLOUDY    54  51  90 E10       30.20F
PLATTEVILLE    CLOUDY    53  51  95 E14G21    30.18S
FORT MC COY    DRIZZLE   53  51  92 E3        30.20S
CAMP DOUGLAS   LGT RAIN  52  52 100 E8        30.20F
VIROQUA        CLOUDY    52  52 100 E10       30.18F
WIS DELLS      NOT AVBL
$$

...ELSEWHERE IN WISCONSIN...


CITY           SKY/WX    TMP DP  RH WIND       PRES   REMARKS
MILWAUKEE      CLOUDY    45  40  82 NE3       30.27R
MADISON        CLOUDY    52  48  86 SE12      30.22S
GREEN BAY      CLOUDY    54  35  48 SE7       30.25F
EAU CLAIRE     CLOUDY    55  46  71 SE10G23   30.18F
BLACK RVR FLS  CLOUDY    54  50  88 E5        30.20S
MEDFORD        CLOUDY    55  24  30 SE6       30.22S
WAUSAU         CLOUDY    56  23  27 E7        30.22S
WIS RAPIDS     LGT RAIN  54  43  66 SE6       30.24S
MARSHFIELD     LGT RAIN  54  45  71 SE7       30.22S
RICE LAKE      CLOUDY    59  34  39 SE10      30.19F
$$

...NORTHEAST IOWA...


CITY           SKY/WX    TMP DP  RH WIND       PRES   REMARKS
DECORAH        CLOUDY    54  54 100 SE10      30.16F FOG
MASON CITY     FOG       55  55 100 SE15      30.14R VSB 1/4
CHARLES CITY   FOG       55  55 100 SE13      30.15S VSB 1/4
OELWEIN        CLOUDY    55  55 100 E15G22    30.15F FOG
$$

...ELSEWHERE IN IOWA...


CITY           SKY/WX    TMP DP  RH WIND       PRES   REMARKS
DES MOINES     CLOUDY    69  62  78 E10       30.06R
IOWA CITY      CLOUDY    62  60  93 E9        30.15S FOG
FORT DODGE     CLOUDY    61  57  88 SE14      30.08S VSB 1
$$

...NORTHERN ILLINOIS...


CITY           SKY/WX    TMP DP  RH WIND       PRES   REMARKS
CHICAGO-OHARE  FOG       48  47  96 NE7       30.21F VSB 3/4
CHICAGO-MIDWAY CLOUDY    52  49  89 NE7       30.21S FOG
MOLINE         CLOUDY    61  58  90 E12       30.15S FOG
ROCKFORD       CLOUDY    52  49  89 E7        30.22F FOG
PEORIA         CLEAR     67  62  84 E10       30.15S HAZE
$$

NOTE: "FAIR" INDICATES FEW OR NO CLOUDS BELOW 12,000 FEET WITH NO
SIGNIFICANT WEATHER AND/OR OBSTRUCTIONS TO VISIBILITY. WIND
SPEEDS ARE IN MILES-PER-HOUR.



USA.gov is the U.S. government's official web portal to all federal, state and local government web resources and services.